Willimantic, CT

12:03 AM EDT on April 24, 2018 (GMT -0400)
Windham

Weather History for KIJD - August, 2013

Change the Weather History Date:

Sunday, August 4, 2013

  Actual Average Record
Temperature  
Mean Temperature 66 °F -  
Max Temperature 78 °F 84 °F 94 °F (1975)
Min Temperature 55 °F 63 °F 41 °F (1964)
Cooling Degree Days 1    
Growing Degree Days 16 (Base 50)    
Moisture  
Dew Point 57 °F    
Average Humidity 86    
Maximum Humidity 100    
Minimum Humidity 45    
Precipitation  
Precipitation 0.01 in - - ()
Sea Level Pressure  
Sea Level Pressure 29.86 in    
Wind  
Wind Speed 1 mph (NW)    
Max Wind Speed 14 mph    
Max Gust Speed 26 mph    
Visibility 5 miles    
Events Fog , Rain , Thunderstorm    
Averages and records for this station are not official NWS values.
T = Trace of Precipitation, MM = Missing Value Source: NWS Daily Summary

Daily Weather History Graph

Daily Weather History Graph

Search for Another Location

Airport or City:

Astronomy

Aug. 04, 2013 Rise Set
Actual Time 5:46 AM EDT 8:02 PM EDT
Civil Twilight 5:15 AM EDT 8:33 PM EDT
Nautical Twilight 4:36 AM EDT 9:11 PM EDT
Astronomical Twilight 3:54 AM EDT 9:54 PM EDT
Moon 3:44 AM EDT (8/4) 6:24 PM EDT (8/4)
Length of Visible Light 15h 18m
Length of Day
14h 16m
Waning Crescent, 5% of the Moon is Illuminated
Aug 4
Waning Crescent
Aug 6
New
Aug 14
First Quarter
Aug 20
Full
Aug 28
Last Quarter

Hourly Weather History & Observations

Time (EDT) Temp. Dew Point Humidity Pressure Visibility Wind Dir Wind Speed Gust Speed Precip Events Conditions
12:52 AM 62.1 °F 61.0 °F 96% 29.87 in 0.2 mi Calm Calm - N/A Fog Fog
1:52 AM 60.1 °F 60.1 °F 100% 29.86 in 0.2 mi Calm Calm - 0.01 in Fog Fog
2:22 AM 60.8 °F 59.0 °F 94% 29.86 in 1.0 mi Calm Calm - N/A   Mist
2:26 AM 60.8 °F 59.0 °F 94% 29.86 in 3.0 mi Calm Calm - N/A   Mostly Cloudy
2:34 AM 59.0 °F 57.2 °F 94% 29.86 in 1.5 mi Calm Calm - N/A   Mostly Cloudy
2:38 AM 59.0 °F 59.0 °F 100% 29.86 in 0.2 mi Calm Calm - N/A Fog Fog
2:52 AM 59.0 °F 57.9 °F 96% 29.86 in 0.2 mi Calm Calm - N/A Fog Fog
3:09 AM 57.2 °F 57.2 °F 100% 29.86 in 1.0 mi North 3.5 mph - N/A   Mist
3:17 AM 57.2 °F 57.2 °F 100% 29.86 in 2.5 mi Calm Calm - N/A   Scattered Clouds
3:26 AM 59.0 °F 57.2 °F 94% 29.86 in 1.5 mi Calm Calm - N/A   Mostly Cloudy
3:33 AM 59.0 °F 57.2 °F 94% 29.86 in 0.2 mi Calm Calm - N/A Fog Fog
3:44 AM 59.0 °F 57.2 °F 94% 29.86 in 1.0 mi Calm Calm - N/A   Mist
3:48 AM 57.2 °F 57.2 °F 100% 29.86 in 4.0 mi Calm Calm - N/A   Mostly Cloudy
3:52 AM 57.9 °F 57.0 °F 97% 29.86 in 9.0 mi Calm Calm - N/A   Scattered Clouds
4:09 AM 57.2 °F 55.4 °F 94% 29.86 in 1.8 mi Calm Calm - N/A   Partly Cloudy
4:27 AM 57.2 °F 57.2 °F 100% 29.86 in 3.0 mi Calm Calm - N/A   Partly Cloudy
4:52 AM 57.0 °F 55.9 °F 96% 29.86 in 10.0 mi Calm Calm - N/A   Clear
5:18 AM 57.2 °F 55.4 °F 94% 29.86 in 10.0 mi Calm Calm - N/A   Scattered Clouds
5:31 AM 57.2 °F 55.4 °F 94% 29.86 in 10.0 mi Calm Calm - N/A   Mostly Cloudy
5:49 AM 57.2 °F 55.4 °F 94% 29.86 in 1.5 mi Calm Calm - N/A   Scattered Clouds
5:52 AM 55.9 °F 55.0 °F 97% 29.86 in 0.5 mi Calm Calm - N/A Fog Fog
5:54 AM 55.4 °F 55.4 °F 100% 29.86 in 0.2 mi Calm Calm - N/A Fog Fog
6:13 AM 55.4 °F 55.4 °F 100% 29.86 in 1.0 mi Calm Calm - N/A   Mist
6:18 AM 55.4 °F 55.4 °F 100% 29.87 in 4.0 mi Calm Calm - N/A   Overcast
6:21 AM 55.4 °F 55.4 °F 100% 29.87 in 1.5 mi Calm Calm - N/A   Overcast
6:28 AM 55.4 °F 55.4 °F 100% 29.87 in 0.5 mi Calm Calm - N/A Fog Fog
6:33 AM 55.4 °F 55.4 °F 100% 29.87 in 2.5 mi Calm Calm - N/A   Mostly Cloudy
6:36 AM 55.4 °F 55.4 °F 100% 29.87 in 7.0 mi Variable 5.8 mph - N/A   Scattered Clouds
6:48 AM 55.4 °F 55.4 °F 100% 29.87 in 1.5 mi Calm Calm - N/A   Scattered Clouds
6:50 AM 55.4 °F 55.4 °F 100% 29.87 in 0.5 mi Calm Calm - N/A Fog Fog
6:52 AM 57.0 °F 55.9 °F 96% 29.87 in 0.2 mi Calm Calm - N/A Fog Fog
7:07 AM 57.2 °F 57.2 °F 100% 29.87 in 1.0 mi Calm Calm - N/A   Mist
7:10 AM 57.2 °F 57.2 °F 100% 29.87 in 3.0 mi Calm Calm - N/A   Mostly Cloudy
7:20 AM 57.2 °F 57.2 °F 100% 29.87 in 10.0 mi Calm Calm - N/A   Scattered Clouds
7:52 AM 61.0 °F 57.9 °F 90% 29.87 in 10.0 mi Calm Calm - N/A   Clear
8:52 AM 64.9 °F 60.1 °F 84% 29.86 in 10.0 mi Calm Calm - N/A   Clear
9:52 AM 71.1 °F 57.0 °F 61% 29.86 in 10.0 mi NNW 6.9 mph - N/A   Clear
10:52 AM 73.9 °F 55.9 °F 53% 29.85 in 10.0 mi NNW 6.9 mph - N/A   Clear
11:52 AM 73.0 °F 55.0 °F 53% 29.86 in 10.0 mi NW 6.9 mph - N/A   Clear
12:52 PM 75.0 °F 55.9 °F 51% 29.85 in 10.0 mi West 12.7 mph - N/A   Partly Cloudy
1:52 PM 75.9 °F 54.0 °F 46% 29.83 in 10.0 mi NW 6.9 mph 16.1 mph N/A   Scattered Clouds
2:52 PM 77.0 °F 54.0 °F 45% 29.82 in 10.0 mi NW 10.4 mph - N/A   Partly Cloudy
3:52 PM 77.0 °F 55.9 °F 48% 29.82 in 10.0 mi West 10.4 mph - N/A   Partly Cloudy
4:29 PM 75.2 °F 53.6 °F 47% 29.83 in 10.0 mi West 13.8 mph 17.3 mph N/A Thunderstorm Clear
4:52 PM 70.0 °F 59.0 °F 68% 29.83 in 10.0 mi North 10.4 mph 19.6 mph 0.00 in Rain Light Rain
5:52 PM 73.0 °F 57.9 °F 59% 29.84 in 10.0 mi NW 6.9 mph 26.5 mph N/A   Clear
6:52 PM 72.0 °F 59.0 °F 64% 29.85 in 10.0 mi NW 5.8 mph - N/A   Partly Cloudy
7:52 PM 66.9 °F 59.0 °F 76% 29.87 in 10.0 mi NW 3.5 mph - 0.00 in   Clear
8:52 PM 64.0 °F 55.0 °F 73% 29.89 in 10.0 mi Variable 3.5 mph - N/A   Clear
9:52 PM 63.0 °F 55.0 °F 75% 29.91 in 10.0 mi Variable 4.6 mph - N/A   Clear
10:52 PM 63.0 °F 53.1 °F 70% 29.92 in 10.0 mi NNW 5.8 mph - N/A   Clear
11:52 PM 61.0 °F 53.1 °F 75% 29.93 in 10.0 mi Calm Calm - N/A   Clear